Probability
0 0 0 0 0 0 0 0 0 0 0 0 0 0 0 0 0 0 0 0 0 0 0 0 0 0 0 0 0 0 0 0 0 0 0 0 0 0
0 0 0 0 0 0 0 0 0 0 0 0 0 0 0 0 0 0 0 0 0 0 0 0 0 0 0 0 0 0 0 0 0 0 0 0 0 0
0 0 0 0 0 0 0 0 0 0 0 0 0 0 0 0 0 0 0 0 0 0 0 0 0 0 0 0 0 0 0 0 0 0 0 0 0 0
0 0 0 0 0 0 0 0 0 0 0 0 0 0 0 0 0 0 0 0 0 0 0 0 0 0 0 0 0 0 0 0 0 0 0 0 0 0
0 0 0 0 0 0 0 0 0 0 0 0 0 0 0 0 0 0 0 0 0 0 0 0 0 0 0 0 0 0 0 0 0 0 0 0 0 0
0 0 0 0 0 0 0 0 0 0 0 0 0 0 0 0 0 0 0 0 0 0 0 0 0 0 0 0 0 0 0 0 0 0 0 0 0 0
0 0 0 0 0 0 0 0 0 0 0 0 0 0 0 0 0 0 0 0 0 0 0 0 0 0 0 0 0 0 0 0 0 0 0 0 0 0
0 0 0 0 0 0 0 0 0 0 0 0 0 0 0 0 0 0 0 0 0 0 0 0 0 0 0 0 0 0 0 0 0 0 0 0 0 0
0 0 0 0 0 0 0 0 0 0 0 0 0 0 0 0 0 0 0 0 0 0 0 0 0 0 0 0 0 0 0 0 0 0 0 0 0 0
0 0 0 0 0 0 0 0 0 0 0 0 0 0 0 0 0 0 0 0 0 0 0 0 0 0 0 0 0 0 0 0 0 0 0 0 0 0
0 0 0 0 0 0 0 0 0 0 0 0 0 0 0 0 0 0 0 0 0 0 0 0 0 0 0 0 0 0 0 0 0 0 0 0 0 0
0 0 0 0 0 0 0 0 0 0 0 0 0 0 0 0 0 0 0 0 0 0 0 0 0 0 0 0 0 0 0 0 0 0 0 0 0 0
0 0 0 0 0 0 0 0 0 0 0 0 0 0 0 0 0 0 0 0 0 0 0 0 0 0 0 0 0 0 0 0 0 0 0 0 0 0
0 0 0 0 0 0 0 0 0 0 0 0 0 0 0 0 0 0 0 0 0 0 0 0 0 0 0 0 0 0 0 0 0 0 0 0 0 0
0 0 0 0 0 0 0 0 0 0 0 0 0 0 0 0 0 0 0 0 0 0 0 0 0 0 0 0 0 0 0 0 0 0 0 0 0 0
0 0 0 0 0 0 0 0 0 0 0 0 0 0 0 0 0 0 0 0 0 0 0 0 0 0 0 0 0 0 0 0 0 0 0 0 0 0
0 0 0 0 0 0 0 0 0 0 0 0 0 0 0 0 0 0 0 0 0 0 0 0 0 0 0 0 0 0 0 0 0 0 0 0 0 0
0 0 0 0 0 0 0 0 0 0 0 0 0 0 0 0 0 0 0 0 0 0 0 0 0 0 0 0 0 0 0 0 0 0 0 0 0 0
0 0 0 0 0 0 0 0 0 0 0 0 0 0 0 0 0 0 0 0 0 0 0 0 0 0 0 0 0 0 0 0 0 0 0 0 0 0
0 0 0 0 0 0 0 0 0 0 0 0 0 0 0 0 0 0 0 0 0 0 0 0 0 0 0 0 0 0 0 0 0 0 0 0 0 0
0 0 0 0 0 0 0 0 0 0 0 0 0 0 0 0 0 0 0 0 0 0 0 0 0 0 0 0 0 0 0 0 0 0 0 0 0 0
0 0 0 0 0 0 0 0 0 0 0 0 0 0 0 0 0 0 0 0 0 0 0 0 0 0 0 0 0 0 0 0 0 0 0 0 0 0
0 0 0 0 0 0 0 0 0 0 0 0 0 0 0 0 0 0 0 0 0 0 0 0 0 0 0 0 0 0 0 0 0 0 0 0 0 0
Wind_Speed
2 2 2 2 2 2 2 2 2 4 4 2 1 2 2 1 3 2 3 6 8 8 8 8 8 7 7 8 8 8 8 8 8 9 9 9 10 11
2 2 2 2 2 2 2 2 2 3 4 2 2 3 3 3 5 3 3 7 8 8 8 7 8 7 8 8 8 8 7 7 8 9 9 9 10 10
3 3 3 3 2 2 2 2 2 3 5 4 3 3 4 4 4 3 3 3 4 7 7 7 7 8 8 7 7 7 7 7 8 9 10 10 10 10
3 3 4 3 3 2 2 3 3 3 4 6 4 3 4 4 3 4 4 4 3 6 7 8 8 8 8 8 7 7 8 8 8 8 9 10 10 11
4 4 4 3 4 3 3 3 3 4 3 4 5 3 3 3 3 4 4 3 4 5 7 7 8 8 8 8 8 7 8 8 8 8 8 9 9 10
4 4 4 4 4 4 4 4 3 3 3 4 4 4 3 3 3 3 4 3 4 4 5 6 7 8 8 8 7 7 7 7 8 9 9 9 9 10
4 4 5 5 6 5 4 3 3 3 3 3 4 4 3 3 3 3 4 4 4 3 3 4 4 3 4 5 6 7 8 8 9 9 9 9 9 10
5 4 5 5 6 8 8 8 6 5 4 4 4 4 5 4 3 3 3 4 4 2 2 4 3 3 3 2 5 7 8 9 9 9 9 10 10 10
5 5 4 5 6 4 7 9 8 10 10 5 5 5 5 4 4 4 4 4 5 3 2 4 3 3 3 3 7 7 8 9 9 10 10 10 10 10
6 6 6 5 5 5 5 5 5 6 7 5 5 5 5 4 4 4 4 5 5 4 2 4 3 3 4 3 6 7 8 9 10 10 10 11 11 10
6 6 6 6 9 9 5 5 5 5 7 9 8 7 8 8 5 2 2 2 4 3 1 2 3 3 3 3 4 7 8 9 9 10 11 11 10 9
5 6 9 9 10 10 6 5 6 5 4 4 6 6 5 5 6 4 3 3 3 3 2 1 2 2 4 3 2 3 4 7 10 10 11 10 10 5
4 4 5 10 11 11 8 5 7 6 4 4 4 3 3 3 3 3 3 3 4 4 2 1 2 2 3 4 4 3 3 3 4 5 8 10 10 7
5 4 5 9 10 10 7 8 9 6 3 3 3 3 3 3 3 3 3 3 4 5 4 2 2 3 3 4 5 3 3 3 3 4 4 7 8 10
4 7 8 9 8 6 8 9 7 3 3 3 4 4 3 3 2 2 2 3 3 4 3 3 3 3 3 4 5 4 4 4 3 3 4 4 4 4
4 5 7 7 6 6 6 5 3 3 3 4 3 3 2 2 2 2 2 2 2 3 2 3 4 4 4 5 5 5 4 4 3 4 5 5 4 4
3 2 2 2 3 3 3 3 3 3 3 3 3 3 3 3 3 2 2 2 3 3 3 2 2 3 4 5 5 5 5 5 4 4 5 6 5 4
4 3 4 4 4 4 3 3 3 3 3 3 3 3 3 3 3 2 2 3 4 4 3 2 2 2 3 4 6 6 4 4 4 4 4 5 7 5
5 4 4 4 4 4 4 3 3 3 3 3 3 3 3 3 3 3 3 3 4 4 3 2 2 2 3 5 4 4 4 4 4 4 4 5 6 7
4 5 5 4 4 4 4 3 3 3 3 3 3 3 3 3 3 4 4 4 4 4 3 3 3 3 4 4 4 4 5 4 4 5 5 5 6 8
4 4 4 4 4 4 4 3 3 3 3 3 3 3 3 3 4 4 4 5 5 4 4 4 3 4 2 2 3 4 4 5 6 5 5 5 6 5
4 4 4 4 3 3 3 3 3 3 3 3 3 3 3 3 4 4 4 4 3 3 4 3 2 2 2 3 4 5 5 5 6 9 9 8 5 4
4 3 3 3 3 3 3 3 4 3 3 3 3 3 3 3 3 3 3 3 3 3 3 3 2 2 2 3 4 4 6 6 5 5 5 8 10 13
Wind_Direction
252 257 257 260 264 268 267 247 257 282 285 277 301 330 331 318 318 310 311 315 317 317 319 324 324 323 323 321 318 313 310 308 306 302 301 300 300 293
238 239 243 247 257 254 249 257 247 253 269 282 285 298 315 314 312 306 295 305 304 307 312 316 319 318 316 316 317 314 310 306 303 301 302 303 301 301
247 243 251 248 246 250 249 257 260 251 262 278 283 294 299 300 308 303 292 286 290 295 300 306 310 312 309 310 312 311 308 306 304 302 302 302 300 299
242 241 250 253 247 245 244 251 255 253 255 275 285 289 285 288 292 298 297 292 288 291 294 300 304 307 305 304 306 307 307 304 303 303 305 304 303 300
235 237 243 241 247 248 244 247 255 264 257 266 278 283 285 290 294 293 290 290 292 291 289 297 301 301 300 300 303 303 302 303 302 301 300 300 301 302
236 236 239 235 240 244 246 248 252 258 259 262 268 276 279 283 287 287 293 288 291 294 290 296 296 297 296 299 302 301 302 304 305 305 304 301 301 301
240 241 239 235 239 244 249 245 247 251 256 260 266 277 279 287 281 278 284 294 287 277 289 291 290 283 287 291 295 296 299 302 305 305 304 302 302 303
242 244 242 239 243 254 260 262 259 253 251 252 258 263 271 276 278 279 290 297 292 283 293 290 282 281 279 273 291 298 299 302 303 302 300 302 302 301
240 240 246 242 244 237 251 260 263 264 261 257 253 257 266 269 272 277 273 273 273 277 294 286 282 278 282 288 295 294 298 304 306 305 305 303 301 301
239 235 236 235 236 236 234 242 246 252 257 255 245 252 259 264 258 260 263 277 279 274 251 274 285 280 295 285 284 289 297 304 307 308 307 306 305 305
244 238 236 232 241 246 242 243 252 257 261 257 257 263 272 278 278 276 269 274 280 280 252 255 281 297 290 278 282 294 300 303 306 307 307 308 309 311
247 241 241 244 246 245 236 231 245 253 252 259 259 265 267 270 269 245 233 247 263 272 253 250 277 312 300 282 280 293 295 299 306 306 305 307 310 307
246 243 241 247 250 252 249 235 244 254 244 245 252 258 257 250 252 246 234 233 241 253 250 255 271 269 267 291 294 279 274 290 301 301 304 307 307 304
242 240 242 248 248 251 251 250 255 259 244 245 253 258 257 254 253 250 252 252 246 246 244 230 247 252 265 279 283 289 294 290 289 289 289 302 303 302
241 246 253 251 249 247 248 253 251 239 230 242 251 257 253 249 252 259 263 264 266 261 253 241 236 248 249 258 273 280 295 293 283 284 292 293 290 293
247 248 252 249 248 247 249 248 234 227 234 242 249 253 253 246 245 246 254 261 272 274 261 246 238 238 255 261 264 272 274 277 288 292 294 291 287 280
241 237 239 239 233 230 231 232 227 230 239 239 242 249 249 248 251 247 247 254 258 268 273 265 256 253 252 259 264 265 270 272 275 288 298 298 291 283
246 232 235 233 230 227 228 232 230 228 229 233 237 240 244 245 252 251 246 250 259 264 267 266 275 294 288 274 246 256 266 271 279 284 283 290 292 292
241 232 232 232 228 223 225 229 233 228 222 229 237 239 243 245 249 252 250 254 259 262 263 259 257 255 271 286 284 242 256 276 285 287 282 282 285 291
228 229 231 227 223 220 221 227 231 226 224 232 237 237 238 245 250 251 249 250 257 263 266 256 245 244 248 262 278 287 273 267 274 283 291 291 285 288
231 231 227 223 220 216 217 220 225 227 227 231 236 236 235 240 248 249 250 254 258 255 257 261 257 264 262 269 279 283 281 270 273 276 287 296 299 297
229 228 225 221 219 217 216 217 224 227 225 230 235 235 235 240 246 246 244 249 251 253 261 269 267 259 243 252 270 283 293 300 292 288 279 267 273 278
232 227 224 220 218 216 217 221 225 229 228 229 230 234 236 243 247 244 242 243 248 253 262 269 269 261 253 250 266 279 287 295 301 304 295 287 282 279